GW2484 Weather Reports


Display with metric or nautical units.
time (UTC)temp
F
wind
direction
speed
MPH
gust
MPH
rain 1hr
in
rain 24hr
in
rain mn
in
humidity
%
barometer
mb
20260905202013 101 129 4.0 8.0 0.00 0.00 0.00 38 1012.8
20260905201521 103 91 1.0 6.0 0.00 0.00 0.00 37 1012.8
20260905201015 102 60 1.0 6.0 0.00 0.00 0.00 40 1012.9
20260905200516 102 116 3.0 7.0 0.00 0.00 0.00 38 1013.0
20260905200034 101 140 3.0 12.0 0.00 0.00 0.00 38 1013.1
20260905195515 102 94 3.0 12.0 0.00 0.00 0.00 37 1013.2
20260905195011 102 132 5.0 8.0 0.00 0.00 0.00 38 1013.2
20260905194512 100 176 3.0 7.0 0.00 0.00 0.00 39 1013.2
20260905194016 101 163 2.0 5.0 0.00 0.00 0.00 40 1013.4
20260905193509 101 134 2.0 8.0 0.00 0.00 0.00 38 1013.4
20260905193031 101 131 3.0 10.0 0.00 0.00 0.00 39 1013.5
20260905192513 101 139 7.0 10.0 0.00 0.00 0.00 39 1013.6
20260905192011 101 261 1.0 8.0 0.00 0.00 0.00 39 1013.6
20260905191529 101 169 1.0 8.0 0.00 0.00 0.00 38 1013.8
20260905191016 100 151 5.0 8.0 0.00 0.00 0.00 41 1013.8
20260905190507 100 117 3.0 7.0 0.00 0.00 0.00 40 1013.8
20260905190030 101 170 1.0 10.0 0.00 0.00 0.00 39 1013.9
20260905185512 100 130 3.0 10.0 0.00 0.00 0.00 41 1014.0
20260905185018 100 147 4.0 9.0 0.00 0.00 0.00 40 1014.0
20260905184535 99 212 0.0 6.0 0.00 0.00 0.00 41 1014.0
20260905184012 99 179 1.0 9.0 0.00 0.00 0.00 41 1014.1
20260905183506 99 262 3.0 9.0 0.00 0.00 0.00 41 1014.2
20260905183004 99 177 2.0 6.0 0.00 0.00 0.00 42 1014.2
20260905182515 99 294 2.0 8.0 0.00 0.00 0.00 43 1014.3
20260905182004 99 216 2.0 9.0 0.00 0.00 0.00 42 1014.3
20260905181523 98 282 5.0 9.0 0.00 0.00 0.00 42 1014.3
20260905181006 99 279 2.0 6.0 0.00 0.00 0.00 41 1014.4
20260905180518 99 12 2.0 5.0 0.00 0.00 0.00 43 1014.5
20260905180017 99 290 1.0 5.0 0.00 0.00 0.00 42 1014.5
20260905175507 98 248 2.0 5.0 0.00 0.00 0.00 42 1014.6
20260905175003 98 285 1.0 5.0 0.00 0.00 0.00 42 1014.7
20260905174514 98 292 2.0 6.0 0.00 0.00 0.00 45 1014.9
20260905174004 98 279 3.0 6.0 0.00 0.00 0.00 43 1014.9
20260905173518 97 180 3.0 8.0 0.00 0.00 0.00 45 1015.0
20260905173011 97 258 3.0 8.0 0.00 0.00 0.00 45 1015.1
20260905172504 98 177 2.0 8.0 0.00 0.00 0.00 42 1015.1
20260905172011 98 358 1.0 5.0 0.00 0.00 0.00 44 1015.2
20260905171508 97 302 0.0 6.0 0.00 0.00 0.00 46 1015.2
20260905171003 97 254 2.0 6.0 0.00 0.00 0.00 44 1015.3
20260905170510 97 258 1.0 4.0 0.00 0.00 0.00 44 1015.4
20260905170009 97 170 1.0 4.0 0.00 0.00 0.00 45 1015.4
20260905165514 97 188 1.0 8.0 0.00 0.00 0.00 45 1015.4
20260905165008 96 259 2.0 8.0 0.00 0.00 0.00 44 1015.5
20260905164510 97 225 3.0 7.0 0.00 0.00 0.00 45 1015.5
20260905164012 96 242 3.0 7.0 0.00 0.00 0.00 46 1015.6
20260905163507 96 167 2.0 4.0 0.00 0.00 0.00 48 1015.5
20260905163004 96 184 2.0 3.0 0.00 0.00 0.00 49 1015.5
20260905162512 95 223 1.0 3.0 0.00 0.00 0.00 49 1015.5
20260905162005 95 246 1.0 7.0 0.00 0.00 0.00 49 1015.5
20260905161526 94 200 1.0 7.0 0.00 0.00 0.00 49 1015.6
20260905161006 94 205 2.0 6.0 0.00 0.00 0.00 49 1015.6
20260905160503 95 196 2.0 5.0 0.00 0.00 0.00 51 1015.6
20260905160020 93 210 0.0 4.0 0.00 0.00 0.00 1015.6
20260905155519 93 211 1.0 4.0 0.00 0.00 0.00 54 1015.6
20260905155002 92 182 1.0 5.0 0.00 0.00 0.00 54 1015.5
20260905154516 93 212 1.0 5.0 0.00 0.00 0.00 51 1015.6
20260905154004 92 279 1.0 4.0 0.00 0.00 0.00 53 1015.6
20260905153516 92 248 3.0 4.0 0.00 0.00 0.00 52 1015.5
20260905153018 91 219 2.0 3.0 0.00 0.00 0.00 55 1015.5
20260905152504 91 231 2.0 3.0 0.00 0.00 0.00 54 1015.4
20260905152013 92 210 1.0 5.0 0.00 0.00 0.00 55 1015.5
20260905151519 91 323 1.0 5.0 0.00 0.00 0.00 55 1015.4
20260905151005 91 216 3.0 5.0 0.00 0.00 0.00 54 1015.4
20260905150514 90 293 3.0 5.0 0.00 0.00 0.00 56 1015.4
20260905150008 89 270 2.0 5.0 0.00 0.00 0.00 56 1015.4
20260905145515 89 224 1.0 5.0 0.00 0.00 0.00 57 1015.4
20260905145011 89 297 3.0 5.0 0.00 0.00 0.00 58 1015.3
20260905144532 88 214 1.0 5.0 0.00 0.00 0.00 59 1015.3
20260905144012 88 212 2.0 5.0 0.00 0.00 0.00 59 1015.3
20260905143511 87 262 2.0 4.0 0.00 0.00 0.00 61 1015.3
20260905143006 87 224 2.0 6.0 0.00 0.00 0.00 61 1015.2
20260905142512 86 247 2.0 6.0 0.00 0.00 0.00 62 1015.2
20260905142004 86 236 1.0 4.0 0.00 0.00 0.00 62 1015.2
20260905141528 86 227 1.0 4.0 0.00 0.00 0.00 63 1015.2
20260905141010 85 220 2.0 4.0 0.00 0.00 0.00 63 1015.2
20260905140506 85 232 1.0 4.0 0.00 0.00 0.00 64 1015.2
20260905140024 84 234 2.0 4.0 0.00 0.00 0.00 65 1015.2
20260905135510 84 238 2.0 4.0 0.00 0.00 0.00 65 1015.1
20260905135015 84 243 1.0 4.0 0.00 0.00 0.00 66 1015.1
20260905134523 83 215 2.0 3.0 0.00 0.00 0.00 68 1015.2
20260905134008 82 165 0.0 2.0 0.00 0.00 0.00 69 1015.1
20260905133515 82 165 0.0 2.0 0.00 0.00 0.00 70 1015.0
20260905133024 81 131 1.0 2.0 0.00 0.00 0.00 72 1015.0
20260905132506 80 89 0.0 2.0 0.00 0.00 0.00 74 1014.9
20260905132017 79 71 0.0 2.0 0.00 0.00 0.00 75 1014.9
20260905131531 78 340 0.0 2.0 0.00 0.00 0.00 77 1014.9
20260905131008 77 332 0.0 2.0 0.00 0.00 0.00 80 1014.9
20260905130513 76 332 0.0 1.0 0.00 0.00 0.00 81 1014.8
20260905130034 75 175 0.0 0.0 0.00 0.00 0.00 81 1014.7
20260905125521 75 200 0.0 0.0 0.00 0.00 0.00 81 1014.6
20260905125014 75 200 0.0 0.0 0.00 0.00 0.00 81 1014.5
20260905124507 75 200 0.0 0.0 0.00 0.00 0.00 81 1014.5
20260905124019 75 200 0.0 0.0 0.00 0.00 0.00 81 1014.6
20260905123511 75 200 0.0 0.0 0.00 0.00 0.00 81 1014.7
20260905123035 74 200 0.0 0.0 0.00 0.00 0.00 81 1014.6
20260905122517 74 200 0.0 0.0 0.00 0.00 0.00 81 1014.5
20260905122016 74 200 0.0 0.0 0.00 0.00 0.00 80 1014.4
20260905121530 74 200 0.0 0.0 0.00 0.00 0.00 80 1014.4
20260905121014 75 200 0.0 0.0 0.00 0.00 0.00 80 1014.4
20260905120510 75 200 0.0 0.0 0.00 0.00 0.00 80 1014.3
20260905120029 75 200 0.0 0.0 0.00 0.00 0.00 80 1014.3
20260905115511 75 200 0.0 0.0 0.00 0.00 0.00 79 1014.2
20260905115020 75 200 0.0 0.0 0.00 0.00 0.00 79 1014.2
20260905114528 75 200 0.0 0.0 0.00 0.00 0.00 79 1014.2
20260905114011 75 200 0.0 0.0 0.00 0.00 0.00 79 1014.3
20260905113524 75 200 0.0 0.0 0.00 0.00 0.00 78 1014.3
20260905113023 75 200 0.0 0.0 0.00 0.00 0.00 78 1014.2
20260905112510 75 200 0.0 0.0 0.00 0.00 0.00 78 1014.2
20260905112015 75 200 0.0 0.0 0.00 0.00 0.00 78 1014.1
20260905111520 75 200 0.0 0.0 0.00 0.00 0.00 77 1014.1
20260905111018 75 200 0.0 0.0 0.00 0.00 0.00 77 1014.2
20260905110515 76 200 0.0 0.0 0.00 0.00 0.00 77 1014.1
20260905110019 76 200 0.0 0.0 0.00 0.00 0.00 77 1014.0
20260905105517 76 200 0.0 0.0 0.00 0.00 0.00 77 1013.9
20260905105013 76 200 0.0 0.0 0.00 0.00 0.00 77 1014.0
20260905104513 76 200 0.0 0.0 0.00 0.00 0.00 76 1014.0
20260905104019 76 200 0.0 0.0 0.00 0.00 0.00 76 1014.0
20260905103515 76 200 0.0 0.0 0.00 0.00 0.00 75 1013.9
20260905103036 76 200 0.0 0.0 0.00 0.00 0.00 75 1013.9
20260905102516 76 200 0.0 2.0 0.00 0.00 0.00 75 1013.8
20260905102010 76 200 0.0 2.0 0.00 0.00 0.00 75 1013.8
20260905101533 76 200 0.0 2.0 0.00 0.00 0.00 75 1013.9
20260905101015 76 200 1.0 2.0 0.00 0.00 0.00 75 1013.9
20260905100508 76 200 0.0 1.0 0.00 0.00 0.00 75 1013.8
20260905100108 76 200 0.0 0.0 0.00 0.00 0.00 75 1013.7
20260905095511 76 200 0.0 0.0 0.00 0.00 0.00 75 1013.7
20260905095015 76 200 0.0 2.0 0.00 0.00 0.00 75 1013.7
20260905094541 76 200 0.0 2.0 0.00 0.00 0.00 75 1013.8
20260905094014 76 200 0.0 2.0 0.00 0.00 0.00 75 1013.8
20260905093503 76 200 0.0 1.0 0.00 0.00 0.00 76 1013.7
20260905093004 76 200 0.0 0.0 0.00 0.00 0.00 76 1013.8
20260905092506 77 201 0.0 0.0 0.00 0.00 0.00 76 1013.7
20260905092007 77 201 0.0 0.0 0.00 0.00 0.00 76 1013.7
20260905091510 77 201 0.0 0.0 0.00 0.00 0.00 75 1013.8
20260905091003 77 201 0.0 0.0 0.00 0.00 0.00 75 1013.7
20260905090504 77 201 0.0 0.0 0.00 0.00 0.00 74 1013.7
20260905090007 77 201 0.0 0.0 0.00 0.00 0.00 74 1013.6
20260905085505 77 201 0.0 0.0 0.00 0.00 0.00 74 1013.6
20260905085004 77 201 0.0 0.0 0.00 0.00 0.00 73 1013.7
20260905084504 77 201 0.0 0.0 0.00 0.00 0.00 73 1013.7
20260905084005 77 201 0.0 0.0 0.00 0.00 0.00 73 1013.7
20260905083504 77 201 0.0 0.0 0.00 0.00 0.00 73 1013.7
20260905083005 78 201 0.0 0.0 0.00 0.00 0.00 73 1013.7
20260905082503 78 201 0.0 0.0 0.00 0.00 0.00 73 1013.7
20260905082003 78 201 0.0 0.0 0.00 0.00 0.00 72 1013.7
20260905081508 78 201 0.0 0.0 0.00 0.00 0.00 72 1013.7
20260905081005 78 201 0.0 0.0 0.00 0.00 0.00 72 1013.7
20260905080504 78 201 0.0 0.0 0.00 0.00 0.00 72 1013.7
20260905080007 78 201 0.0 0.0 0.00 0.00 0.00 72 1013.7
20260905075504 78 201 0.0 0.0 0.00 0.00 0.00 72 1013.7
20260905075005 78 201 0.0 0.0 0.00 0.00 0.00 72 1013.7
20260905074515 78 201 0.0 0.0 0.00 0.00 0.00 71 1013.7
20260905074007 78 201 0.0 0.0 0.00 0.00 0.00 71 1013.7
20260905073506 78 201 0.0 0.0 0.00 0.00 0.00 71 1013.7
20260905073007 78 201 0.0 0.0 0.00 0.00 0.00 71 1013.6
20260905072507 78 201 0.0 0.0 0.00 0.00 0.00 71 1013.5
20260905072006 78 201 0.0 0.0 0.00 0.00 0.00 71 1013.6
20260905071508 78 201 0.0 0.0 0.00 0.00 0.00 71 1013.6
20260905071003 79 201 0.0 0.0 0.00 0.00 0.00 70 1013.6
20260905070504 79 201 0.0 0.0 0.00 0.00 0.00 69 1013.6
20260905070009 79 201 0.0 0.0 0.00 0.00 0.00 69 1013.6
20260905065507 79 201 0.0 0.0 0.00 0.00 0.00 69 1013.7
20260905065003 79 201 0.0 0.0 0.00 0.00 0.00 69 1013.8
20260905064512 79 201 0.0 0.0 0.00 0.00 0.00 68 1013.7
20260905064005 79 201 0.0 0.0 0.00 0.00 0.00 68 1013.8
20260905063504 80 201 0.0 0.0 0.00 0.00 0.00 68 1013.7
20260905063010 80 201 0.0 0.0 0.00 0.00 0.00 67 1013.8
20260905062508 80 201 0.0 0.0 0.00 0.00 0.00 67 1013.8
20260905062008 80 201 0.0 0.0 0.00 0.00 0.00 67 1013.8
20260905061512 80 201 0.0 0.0 0.00 0.00 0.00 66 1013.8
20260905061006 80 201 0.0 0.0 0.00 0.00 0.00 66 1013.7
20260905060509 81 201 0.0 0.0 0.00 0.00 0.00 66 1013.7
20260905060013 81 201 0.0 0.0 0.00 0.00 0.00 65 1013.7
20260905055506 81 201 0.0 0.0 0.00 0.00 0.00 65 1013.6
20260905055007 81 201 0.0 0.0 0.00 0.00 0.00 65 1013.7
20260905054533 81 201 0.0 0.0 0.00 0.00 0.00 64 1013.7
20260905054007 82 201 0.0 0.0 0.00 0.00 0.00 64 1013.6
20260905053508 82 201 0.0 0.0 0.00 0.00 0.00 63 1013.5
20260905053009 82 201 0.0 0.0 0.00 0.00 0.00 63 1013.5
20260905052509 82 201 0.0 0.0 0.00 0.00 0.00 63 1013.5
20260905052008 82 201 0.0 2.0 0.00 0.00 0.00 62 1013.6
20260905051515 82 201 0.0 2.0 0.00 0.00 0.00 62 1013.6
20260905051007 83 201 0.0 2.0 0.00 0.00 0.00 62 1013.6
20260905050510 83 200 0.0 2.0 0.00 0.00 0.00 62 1013.6
20260905050011 83 200 0.0 0.0 0.00 0.00 0.00 61 1013.6
20260905045513 83 200 0.0 0.0 0.00 0.00 0.00 61 1013.7
20260905045003 83 200 0.0 0.0 0.00 0.00 0.00 61 1013.7
20260905044516 83 200 0.0 2.0 0.00 0.00 0.00 61 1013.6
20260905044008 83 200 0.0 2.0 0.00 0.00 0.00 60 1013.6
20260905043511 83 200 0.0 2.0 0.00 0.00 0.00 60 1013.6
20260905043016 84 200 0.0 3.0 0.00 0.00 0.00 60 1013.6
20260905042506 84 200 0.0 3.0 0.00 0.00 0.00 60 1013.6
20260905042008 84 198 0.0 2.0 0.00 0.00 0.00 60 1013.6
20260905041519 84 198 0.0 0.0 0.00 0.00 0.00 60 1013.6
20260905041011 84 198 0.0 0.0 0.00 0.00 0.00 59 1013.6
20260905040516 84 198 0.0 0.0 0.00 0.00 0.00 59 1013.5
20260905040017 85 198 0.0 2.0 0.00 0.00 0.00 58 1013.5
20260905035510 85 198 0.0 2.0 0.00 0.00 0.00 58 1013.5
20260905035013 85 198 0.0 2.0 0.00 0.00 0.00 58 1013.5
20260905034515 85 198 0.0 2.0 0.00 0.00 0.00 58 1013.5
20260905034010 85 199 0.0 2.0 0.00 0.00 0.00 58 1013.5
20260905033510 85 199 1.0 2.0 0.00 0.00 0.00 59 1013.5
20260905033015 85 185 0.0 2.0 0.00 0.00 0.00 59 1013.5
20260905032511 85 185 0.0 2.0 0.00 0.00 0.00 59 1013.4
20260905032015 85 185 0.0 2.0 0.00 0.00 0.00 58 1013.4
20260905031518 86 185 0.0 0.0 0.00 0.00 0.00 58 1013.4
20260905031012 86 185 0.0 0.0 0.00 0.00 0.00 57 1013.3
20260905030507 86 185 0.0 1.0 0.00 0.00 0.00 57 1013.2
20260905030031 86 185 0.0 2.0 0.00 0.00 0.00 57 1013.1
20260905025512 86 185 0.0 2.0 0.00 0.00 0.00 55 1013.1
20260905025010 86 185 0.0 2.0 0.00 0.00 0.00 55 1013.0
20260905024520 87 185 0.0 2.0 0.00 0.00 0.00 56 1013.0
20260905024011 87 185 0.0 2.0 0.00 0.00 0.00 55 1013.0
20260905023511 87 185 0.0 1.0 0.00 0.00 0.00 55 1012.9
20260905023019 87 185 0.0 1.0 0.00 0.00 0.00 54 1012.9
20260905022507 87 185 0.0 2.0 0.00 0.00 0.00 54 1012.8
20260905022014 87 185 0.0 2.0 0.00 0.00 0.00 53 1012.7
20260905021525 88 185 0.0 2.0 0.00 0.00 0.00 53 1012.6
20260905021007 88 199 1.0 2.0 0.00 0.00 0.00 53 1012.5
20260905020505 88 200 0.0 2.0 0.00 0.00 0.00 53 1012.3
20260905020021 88 205 0.0 2.0 0.00 0.00 0.00 52 1012.2
20260905015509 88 205 0.0 2.0 0.00 0.00 0.00 52 1012.2
20260905015016 88 206 0.0 0.0 0.00 0.00 0.00 52 1012.2
20260905014518 89 206 0.0 0.0 0.00 0.00 0.00 52 1012.2
20260905014004 89 206 0.0 0.0 0.00 0.00 0.00 51 1012.1
20260905013514 90 206 0.0 0.0 0.00 0.00 0.00 50 1012.0
20260905013015 90 206 0.0 0.0 0.00 0.00 0.00 50 1011.9
20260905012512 91 206 0.0 0.0 0.00 0.00 0.00 49 1011.8
20260905012014 91 206 0.0 0.0 0.00 0.00 0.00 48 1011.8
20260905011518 92 206 0.0 0.0 0.00 0.00 0.00 47 1011.8
20260905011013 92 206 0.0 1.0 0.00 0.00 0.00 47 1011.8
20260905010513 93 206 0.0 2.0 0.00 0.00 0.00 45 1011.6
20260905010016 93 206 0.0 2.0 0.00 0.00 0.00 45 1011.6
20260905005513 93 206 1.0 2.0 0.00 0.00 0.00 44 1011.5
20260905005009 94 206 0.0 2.0 0.00 0.00 0.00 43 1011.5
20260905004526 94 206 1.0 2.0 0.00 0.00 0.00 43 1011.5
20260905004011 94 206 0.0 3.0 0.00 0.00 0.00 42 1011.5
20260905003508 95 206 1.0 3.0 0.00 0.00 0.00 42 1011.4
20260905003025 95 206 0.0 3.0 0.00 0.00 0.00 42 1011.5
20260905002510 96 206 1.0 3.0 0.00 0.00 0.00 41 1011.5
20260905002008 96 206 1.0 4.0 0.00 0.00 0.00 40 1011.5
20260905001527 96 219 2.0 4.0 0.00 0.00 0.00 40 1011.5
20260905001012 97 223 0.0 9.0 0.00 0.00 0.00 39 1011.5
20260905000517 97 186 3.0 9.0 0.00 0.00 0.00 39 1011.5
20260905000032 97 201 2.0 8.0 0.00 0.00 0.00 38 1011.5
20260904235509 98 210 4.0 8.0 0.00 0.00 0.00 38 1011.5
20260904235015 98 223 4.0 11.0 0.00 0.00 0.00 37 1011.6
20260904234518 98 210 2.0 10.0 0.00 0.00 0.00 37 1011.5
20260904234005 99 239 2.0 10.0 0.00 0.00 0.00 37 1011.5
20260904233515 99 215 3.0 12.0 0.00 0.00 0.00 37 1011.5
20260904233017 99 208 4.0 12.0 0.00 0.00 0.00 36 1011.5
20260904232517 99 262 4.0 10.0 0.00 0.00 0.00 36 1011.5
20260904232014 99 189 4.0 10.0 0.00 0.00 0.00 36 1011.5
20260904231519 99 225 5.0 12.0 0.00 0.00 0.00 35 1011.5
20260904231015 99 149 7.0 12.0 0.00 0.00 0.00 36 1011.5
20260904230512 100 229 7.0 15.0 0.00 0.00 0.00 35 1011.5
20260904230015 100 181 6.0 15.0 0.00 0.00 0.00 35 1011.6
20260904225515 100 148 4.0 11.0 0.00 0.00 0.00 35 1011.5
20260904225013 100 224 3.0 12.0 0.00 0.00 0.00 36 1011.6
20260904224528 100 214 6.0 15.0 0.00 0.00 0.00 36 1011.6
20260904224013 100 174 4.0 16.0 0.00 0.00 0.00 36 1011.6
20260904223512 100 152 5.0 16.0 0.00 0.00 0.00 36 1011.6
20260904223030 100 132 5.0 14.0 0.00 0.00 0.00 36 1011.7
20260904222514 100 161 5.0 14.0 0.00 0.00 0.00 36 1011.7
20260904222010 100 175 4.0 12.0 0.00 0.00 0.00 38 1011.7
20260904221533 101 219 6.0 11.0 0.00 0.00 0.00 37 1011.8
20260904221014 100 200 4.0 10.0 0.00 0.00 0.00 37 1011.8
20260904220517 100 216 6.0 11.0 0.00 0.00 0.00 36 1011.9
20260904220031 100 279 2.0 11.0 0.00 0.00 0.00 39 1011.9
20260904215517 100 222 4.0 11.0 0.00 0.00 0.00 37 1012.0
20260904215019 100 162 3.0 12.0 0.00 0.00 0.00 37 1011.9
20260904214525 100 183 4.0 11.0 0.00 0.00 0.00 39 1012.0
20260904214008 100 156 5.0 12.0 0.00 0.00 0.00 39 1012.0
20260904213518 101 193 5.0 14.0 0.00 0.00 0.00 42 1012.0
20260904213019 100 233 7.0 14.0 0.00 0.00 0.00 40 1012.1
20260904212514 101 223 6.0 12.0 0.00 0.00 0.00 39 1012.1
20260904212015 100 194 4.0 13.0 0.00 0.00 0.00 40 1012.1
20260904211517 100 200 4.0 13.0 0.00 0.00 0.00 41 1012.2
20260904211015 100 175 5.0 12.0 0.00 0.00 0.00 40 1012.3
20260904210516 101 195 5.0 8.0 0.00 0.00 0.00 41 1012.3
20260904210020 100 161 4.0 11.0 0.00 0.00 0.00 41 1012.3
20260904205516 100 187 5.0 13.0 0.00 0.00 0.00 42 1012.4
20260904205011 99 221 7.0 13.0 0.00 0.00 0.00 42 1012.5
20260904204532 99 227 5.0 10.0 0.00 0.00 0.00 43 1012.4
20260904204021 98 258 2.0 10.0 0.00 0.00 0.00 44 1012.5
20260904203512 99 279 4.0 8.0 0.00 0.00 0.00 43 1012.5
20260904203045 99 215 1.0 11.0 0.00 0.00 0.00 46 1012.6
20260904202513 99 149 4.0 11.0 0.00 0.00 0.00 43 1012.8